Date String (YYYY-MM-DD hh:mm:ss) UTC,Instrument flags,absolute air pressure of the measurement (hPa),sample flow rate (lpm),inlet stack bypass flow (lpm),air temperature of the measurement (°C),ambient temperature measured by the external sensor (°C),aerosol sample conditioner tube jacket temperature (°C),OPC LED temperature (°C),internal box temperature (°C),relative humidity of the measurement (%),span deviation,mass concentration of particles derived from Lorenz-Mie calculation of OPC scattering (μg/m³),mass concentration of particles derived from Lorenz-Mie calculation of OPC scattering (μg/m³),mass concentration of particles derived from Lorenz-Mie calculation of OPC scattering (μg/m³)
DateTimeUTC,F1_M11,P_M11,Q1_M11,Q2_M11,T1_M11,T2_M11,T3_M11,T4_M11,T5_M11,U1_M11,ZSPAN_M11,X0_M11,X2_M11,X1_M11
2023-08-06 19:00:00,SystemResetWarning,0837.5,5.01,000.00,029.7,026.0,000.0,038.1,030.9,29.2,-000.5,0011.05,0008.10,0007.60
2023-08-06 19:01:00,SystemResetWarning,0837.4,5.00,000.00,029.6,026.3,000.0,038.1,030.9,29.7,-000.8,0011.06,0008.12,0007.60
2023-08-06 19:02:00,SystemResetWarning,0837.4,5.00,000.00,029.6,026.7,000.0,038.1,030.9,29.8,-000.7,0010.93,0008.11,0007.59
2023-08-06 19:03:00,SystemResetWarning,0837.4,5.00,000.00,029.5,027.0,000.0,038.1,031.0,29.5,-000.6,0010.82,0008.08,0007.57
2023-08-06 19:04:00,SystemResetWarning,0837.4,5.00,000.00,029.5,027.3,000.0,038.1,031.1,29.7,-000.4,0011.10,0008.06,0007.55
2023-08-06 19:05:00,SystemResetWarning,0837.4,4.99,000.00,029.6,027.5,000.0,038.2,031.1,29.2,-000.9,0011.75,0008.06,0007.54
2023-08-06 19:06:00,SystemResetWarning,0837.3,5.00,000.00,029.6,027.7,000.0,038.2,031.2,29.3,-001.2,0011.85,0008.08,0007.53
2023-08-06 19:07:00,SystemResetWarning,0837.3,5.00,000.00,029.6,027.9,000.0,038.2,031.2,29.4,-001.1,0011.89,0008.08,0007.50
2023-08-06 19:08:00,SystemResetWarning,0837.3,5.00,000.00,029.6,028.1,000.0,038.2,031.2,28.8,-000.8,0011.87,0008.08,0007.49
2023-08-06 19:09:00,SystemResetWarning,0837.3,4.99,000.00,029.6,028.2,000.0,038.2,031.3,28.9,-000.8,0011.92,0008.06,0007.45
2023-08-06 19:10:00,SystemResetWarning,0837.3,4.99,000.00,029.7,028.3,000.0,038.2,031.3,29.6,-000.8,0011.92,0008.01,0007.40
2023-08-06 19:11:00,SystemResetWarning,0837.3,5.01,000.00,029.7,028.4,000.0,038.2,031.4,29.9,-000.6,0011.84,0007.98,0007.38
2023-08-06 19:12:00,SystemResetWarning,0837.4,5.01,000.00,029.7,028.5,000.0,038.2,031.4,29.2,-000.1,0011.77,0007.93,0007.37
2023-08-06 19:13:00,SystemResetWarning,0837.4,4.99,000.00,029.7,028.6,000.0,038.3,031.4,29.2,-000.2,0012.09,0007.89,0007.35
2023-08-06 19:14:00,SystemResetWarning,0837.4,5.01,000.00,029.8,028.6,000.0,038.3,031.4,29.1,-000.5,0012.06,0007.87,0007.34
2023-08-06 19:15:00,SystemResetWarning,0837.4,5.00,000.00,029.8,028.6,000.0,038.3,031.4,29.0,-000.6,0011.67,0007.87,0007.33
2023-08-06 19:16:00,SystemResetWarning,0837.4,4.98,000.00,029.8,027.7,000.0,038.2,031.3,29.1,-000.7,0010.94,0007.85,0007.31
2023-08-06 19:17:00,SystemResetWarning,0837.3,5.01,000.00,029.8,026.1,000.0,038.1,031.1,29.6,-001.0,0011.06,0007.83,0007.29
2023-08-06 19:18:00,SystemResetWarning,0837.3,5.01,000.00,029.7,025.8,000.0,038.0,030.9,29.5,-001.3,0010.95,0007.78,0007.27
2023-08-06 19:19:00,SystemResetWarning,0837.2,4.99,000.00,029.6,026.0,000.0,038.1,030.8,29.7,-001.7,0010.86,0007.73,0007.24
2023-08-06 19:20:00,SystemResetWarning,0837.2,5.00,000.00,029.5,026.4,000.0,038.1,030.8,30.2,-001.7,0010.76,0007.68,0007.21
2023-08-06 19:21:00,SystemResetWarning,0837.2,5.01,000.00,029.5,026.8,000.0,038.1,030.9,30.1,-001.6,0010.70,0007.64,0007.19
2023-08-06 19:22:00,SystemResetWarning,0837.2,4.99,000.00,029.5,027.1,000.0,038.1,031.0,29.8,-001.4,0010.78,0007.62,0007.17
2023-08-06 19:23:00,SystemResetWarning,0837.2,4.99,000.00,029.5,027.3,000.0,038.1,031.0,29.8,-001.3,0010.70,0007.55,0007.13
2023-08-06 19:24:00,SystemResetWarning,0837.2,5.00,000.00,029.5,027.6,000.0,038.1,031.1,29.8,-001.3,0010.38,0007.54,0007.10
2023-08-06 19:25:00,SystemResetWarning,0837.2,5.00,000.00,029.5,027.7,000.0,038.1,031.1,30.1,-000.9,0010.36,0007.51,0007.08
2023-08-06 19:26:00,SystemResetWarning,0837.2,5.00,000.00,029.6,027.9,000.0,038.1,031.2,29.8,-000.4,0010.25,0007.44,0007.03
2023-08-06 19:27:00,SystemResetWarning,0837.2,5.01,000.00,029.6,028.1,000.0,038.1,031.2,29.9,-000.2,0010.26,0007.41,0007.00
2023-08-06 19:28:00,SystemResetWarning,0837.2,5.00,000.00,029.6,028.2,000.0,038.1,031.2,30.0,-000.1,0010.14,0007.37,0006.98
2023-08-06 19:29:00,SystemResetWarning,0837.2,5.00,000.00,029.6,028.3,000.0,038.2,031.3,30.0,-000.0,0010.13,0007.38,0006.96
2023-08-06 19:30:00,SystemResetWarning,0837.2,4.98,000.00,029.6,028.4,000.0,038.2,031.3,30.0,0000.6,0010.25,0007.40,0006.95
2023-08-06 19:31:00,SystemResetWarning,0837.2,5.00,000.00,029.7,028.5,000.0,038.2,031.3,30.1,0000.5,0010.38,0007.42,0006.95
2023-08-06 19:32:00,SystemResetWarning,0837.2,5.01,000.00,029.7,028.5,000.0,038.2,031.4,30.3,0000.4,0010.35,0007.41,0006.94
2023-08-06 19:33:00,SystemResetWarning,0837.2,5.01,000.00,029.7,028.4,000.0,038.2,031.4,30.1,0000.3,0010.26,0007.38,0006.92
2023-08-06 19:34:00,SystemResetWarning,0837.2,4.98,000.00,029.7,027.0,000.0,038.1,031.2,30.0,-000.0,0010.52,0007.44,0006.94
2023-08-06 19:35:00,SystemResetWarning,0837.2,5.00,000.00,029.7,026.0,000.0,038.0,031.1,29.9,-000.2,0010.61,0007.45,0006.95
2023-08-06 19:36:00,SystemResetWarning,0837.2,5.01,000.00,029.6,026.0,000.0,038.0,031.0,30.1,-000.2,0010.77,0007.46,0006.97
2023-08-06 19:37:00,SystemResetWarning,0837.3,5.00,000.00,029.5,026.2,000.0,038.0,030.9,30.2,-000.5,0011.05,0007.52,0006.99
2023-08-06 19:38:00,SystemResetWarning,0837.3,5.00,000.00,029.5,026.6,000.0,038.0,030.9,30.1,-000.5,0011.18,0007.54,0007.02
2023-08-06 19:39:00,SystemResetWarning,0837.4,5.00,000.00,029.5,026.9,000.0,038.1,031.0,30.4,-000.6,0011.16,0007.54,0007.00
2023-08-06 19:40:00,SystemResetWarning,0837.4,5.01,000.00,029.5,027.2,000.0,038.1,031.0,30.4,-000.7,0011.18,0007.56,0007.01
2023-08-06 19:41:00,SystemResetWarning,0837.4,4.99,000.00,029.5,027.5,000.0,038.1,031.1,30.5,-001.2,0011.18,0007.57,0007.00
2023-08-06 19:42:00,SystemResetWarning,0837.4,4.99,000.00,029.5,027.7,000.0,038.1,031.1,30.9,-001.0,0011.08,0007.54,0006.96
2023-08-06 19:43:00,SystemResetWarning,0837.4,5.00,000.00,029.6,027.9,000.0,038.1,031.2,31.2,-000.9,0011.12,0007.51,0006.94
2023-08-06 19:44:00,SystemResetWarning,0837.4,5.00,000.00,029.6,028.0,000.0,038.1,031.2,31.1,-001.0,0011.13,0007.50,0006.92
2023-08-06 19:45:00,SystemResetWarning,0837.3,5.01,000.00,029.6,028.2,000.0,038.1,031.2,31.1,-000.8,0011.47,0007.47,0006.90
2023-08-06 19:46:00,SystemResetWarning,0837.3,5.01,000.00,029.6,028.3,000.0,038.1,031.3,31.0,-000.9,0011.50,0007.44,0006.87
2023-08-06 19:47:00,SystemResetWarning,0837.3,5.00,000.00,029.6,028.3,000.0,038.2,031.3,31.0,-001.1,0011.29,0007.40,0006.83
2023-08-06 19:48:00,SystemResetWarning,0837.2,4.99,000.00,029.7,028.4,000.0,038.2,031.3,30.9,-000.9,0011.31,0007.36,0006.80
2023-08-06 19:49:00,SystemResetWarning,0837.2,4.99,000.00,029.7,028.5,000.0,038.2,031.3,30.8,-001.2,0011.57,0007.35,0006.77
2023-08-06 19:50:00,SystemResetWarning,0837.2,5.00,000.00,029.7,028.5,000.0,038.2,031.4,31.0,-001.2,0011.91,0007.35,0006.76
2023-08-06 19:51:00,SystemResetWarning,0837.3,5.00,000.00,029.7,028.5,000.0,038.2,031.4,31.1,-001.3,0012.12,0007.32,0006.75
2023-08-06 19:52:00,SystemResetWarning,0837.3,4.99,000.00,029.7,027.1,000.0,038.1,031.2,30.9,-001.3,0012.00,0007.26,0006.72
2023-08-06 19:53:00,SystemResetWarning,0837.2,5.01,000.00,029.7,025.8,000.0,038.0,031.0,30.9,-001.1,0012.04,0007.23,0006.74
2023-08-06 19:54:00,SystemResetWarning,0837.3,5.01,000.00,029.6,025.7,000.0,037.9,030.8,31.2,-001.1,0012.14,0007.25,0006.75
2023-08-06 19:55:00,SystemResetWarning,0837.2,5.01,000.00,029.5,026.0,000.0,038.0,030.7,31.4,-000.9,0012.19,0007.29,0006.75
2023-08-06 19:56:00,SystemResetWarning,0837.4,5.00,000.00,029.4,026.4,000.0,038.0,030.8,31.5,-001.1,0011.83,0007.31,0006.75
2023-08-06 19:57:00,SystemResetWarning,0837.4,5.00,000.00,029.4,026.7,000.0,038.0,030.9,31.5,-001.3,0011.62,0007.33,0006.76
2023-08-06 19:58:00,SystemResetWarning,0837.5,5.00,000.00,029.4,027.1,000.0,038.0,031.0,31.3,-001.0,0012.03,0007.38,0006.78
2023-08-06 19:59:00,SystemResetWarning,0837.6,5.00,000.00,029.4,027.3,000.0,038.0,031.0,31.3,-001.2,0012.40,0007.38,0006.78
